Skip Page Navigation
NASA JPL Caltech
NASA Logo - Jet Propulsion Laboratory + View the NASA Portal
+ Center for Near-Earth Object Studies
JPL Home Earth Solar System Stars & Galaxies Technology
JPL Solar System Dynamics
BODIES ORBITS EPHEMERIDES TOOLS PHYSICAL DATA DISCOVERY FAQ SITE MAP
JPL Small-Body Database Browser
Search: [ help ]  
183188 (2002 SQ65)
Classification: Main-belt Asteroid          SPK-ID: 2183188
Ephemeris | Orbit Diagram | Orbital Elements | Mission Design | Physical Parameters | Discovery Circumstances | Close-Approach Data ]

[ show orbit diagram ]
Orbital Elements at Epoch 2459000.5 (2020-May-31.0) TDB
Reference: JPL 11 (heliocentric ecliptic J2000)
 Element Value Uncertainty (1-sigma)   Units 
e .1399848364655276 3.8481e-08  
a 2.261947443756518 1.2542e-08 au
q 1.945309100748644 8.6191e-08 au
i 5.292594780848757 5.5016e-06 deg
node 41.04072415581412 5.874e-05 deg
peri 249.0514570938302 6.4273e-05 deg
M 116.2938136002643 2.4071e-05 deg
tp 2458599.100984074731
(2019-Apr-25.60098407)
8.3977e-05 TDB
period 1242.573798721554
3.40
1.0335e-05
2.83e-08
d
yr
n .2897212224902802 2.4097e-09 deg/d
Q 2.578585786764393 1.4298e-08 au
  Orbit Determination Parameters
   # obs. used (total)      308  
   data-arc span      7297 days (19.98 yr)  
   first obs. used      1999-11-09  
   last obs. used      2019-11-01  
   planetary ephem.      DE431  
   SB-pert. ephem.      SB431-N16  
   condition code      0  
   norm. resid. RMS      .55433  
   source      ORB  
   producer      Otto Matic  
   solution date      2019-Nov-07 20:39:34  

Additional Information
 Earth MOID = .936762 au 
 Jupiter MOID = 2.58095 au 
 T_jup = 3.600 
[ show covariance matrix ]

Ephemeris | Orbit Diagram | Orbital Elements | Mission Design | Physical Parameters | Discovery Circumstances | Close-Approach Data ]

Physical Parameter Table
Parameter Symbol Value Units Sigma Reference Notes
absolute magnitude H 17.3   n/a MPO436905  

183188 (2002 SQ65)          Discovered 2002-Sep-16 by NEAT at Palomar
Reference: 20080420/Numbers.arcLast Updated: 2008-04-23

[ show close-approach data ]
Alternate Designations
 2002 SQ65 = 1999 VD131 
Ephemeris | Orbit Diagram | Orbital Elements | Mission Design | Physical Parameters | Discovery Circumstances | Close-Approach Data ]
ABOUT SSD CREDITS/AWARDS PRIVACY/COPYRIGHT GLOSSARY LINKS
FirstGov 2020-Jul-05 11:39 UT
(server date/time)  
NASA Home Page
Site Manager:   Ryan S. Park
Webmaster  Alan B. Chamberlin